User: anonymous   Login
Location: Vancouver
(49.2500°N, 123.1330°W)
Time: 10:14:33
(UTC-08:00)
Language:

YAOGAN 6 - Orbit

View from above orbital plane
View from above orbital plane
View from above satellite
View from above satellite

Ground track
Ground track

The orbit data is extracted from the following two-line orbital elements,

1 34839U 09021A   18021.78098376  .00000521  00000-0  22761-4 0  9999
2 34839  97.1151  67.2690 0026799 264.4324  95.3859 15.26022636485910
Epoch (UTC): 21 January 2018 18:44:36
Eccentricity: 0.0026799
inclination: 97.1151°
perigee height: 469 km
apogee height: 506 km
right ascension of ascending node: 67.2690°
argument of perigee: 264.4324°
revolutions per day: 15.26022636
mean anomaly at epoch: 95.3859°
orbit number at epoch: 48591

The dashed part of the orbit path shows where the satellite is in the earth's shadow,  

DLR